Change the Weather History Date:

Saturday, April 20, 2013

  Actual Average Record
Temperature  
Mean Temperature 36 °F -  
Max Temperature 46 °F 63 °F 90 °F (1980)
Min Temperature 26 °F 41 °F 22 °F (1953)
Degree Days  
Heating Degree Days 29    
Moisture  
Dew Point 27 °F    
Average Humidity 67    
Maximum Humidity 93    
Minimum Humidity 46    
Precipitation  
Precipitation 0.00 in - - ()
Sea Level Pressure  
Sea Level Pressure 30.13 in    
Wind  
Wind Speed 9 mph (ESE)    
Max Wind Speed 22 mph    
Max Gust Speed 31 mph    
Visibility 10 miles    
Events      
Averages and records for this station are not official NWS values.
T = Trace of Precipitation, MM = Missing Value Source: NWS Daily Summary

Daily Weather History Graph

Daily Weather History Graph

Search for Another Location

Airport or City:

Trip Planner

Search our weather history database for the weather conditions in past years. The results will help you decide how hot, cold, wet, or windy it might be!

Date:

Astronomy

Apr. 20, 2013 Rise Set
Actual Time 6:43 AM CDT 8:15 PM CDT
Civil Twilight 6:14 AM CDT 8:44 PM CDT
Nautical Twilight 5:39 AM CDT 9:19 PM CDT
Astronomical Twilight 5:03 AM CDT 9:56 PM CDT
Moon 2:58 PM CDT (4/20) 3:36 AM CDT (4/20)
Length of Visible Light 14h 29m
Length of Day
13h 32m
Waxing Gibbous, 71% of the Moon is Illuminated
Apr 20
Waxing Gibbous
Apr 25
Full
May 2
Last Quarter
May 9
New
May 17
First Quarter

Hourly Weather History & Observations

Time (CDT) Temp. Windchill Dew Point Humidity Pressure Visibility Wind Dir Wind Speed Gust Speed Precip Events Conditions
12:15 AM 32.0 °F 28.7 °F 24.8 °F 75% 30.10 in 10.0 mi ENE 3.5 mph - N/A   Clear
12:35 AM 32.0 °F 27.5 °F 24.8 °F 75% 30.10 in 10.0 mi ENE 4.6 mph - N/A   Clear
12:55 AM 30.2 °F 25.4 °F 24.8 °F 80% 30.10 in 10.0 mi ENE 4.6 mph - N/A   Clear
1:15 AM 30.2 °F - 24.8 °F 80% 30.11 in 10.0 mi Calm Calm - N/A   Clear
1:35 AM 30.2 °F 23.4 °F 24.8 °F 80% 30.10 in 10.0 mi NE 6.9 mph - N/A   Clear
1:55 AM 28.4 °F 22.2 °F 23.0 °F 80% 30.10 in 10.0 mi NE 5.8 mph - N/A   Clear
2:15 AM 28.4 °F 21.2 °F 23.0 °F 80% 30.10 in 10.0 mi East 6.9 mph - N/A   Clear
2:35 AM 30.2 °F 26.7 °F 24.8 °F 80% 30.12 in 10.0 mi East 3.5 mph - N/A   Partly Cloudy
2:55 AM 32.0 °F - 24.8 °F 75% 30.13 in 10.0 mi Calm Calm - N/A   Partly Cloudy
3:15 AM 28.4 °F 24.6 °F 24.8 °F 86% 30.13 in 10.0 mi SSW 3.5 mph - N/A   Partly Cloudy
3:35 AM 28.4 °F - 24.8 °F 86% 30.13 in 10.0 mi Calm Calm - N/A   Scattered Clouds
3:55 AM 28.4 °F 24.6 °F 24.8 °F 86% 30.13 in 10.0 mi SSE 3.5 mph - N/A   Scattered Clouds
4:15 AM 26.6 °F 21.2 °F 23.0 °F 86% 30.12 in 10.0 mi East 4.6 mph - N/A   Mostly Cloudy
4:35 AM 26.6 °F 21.2 °F 24.8 °F 93% 30.12 in 10.0 mi East 4.6 mph - N/A   Overcast
4:55 AM 28.4 °F 24.6 °F 23.0 °F 80% 30.13 in 10.0 mi ESE 3.5 mph - N/A   Overcast
5:15 AM 28.4 °F 22.2 °F 24.8 °F 86% 30.13 in 10.0 mi East 5.8 mph - N/A   Overcast
5:35 AM 28.4 °F 24.6 °F 24.8 °F 86% 30.13 in 10.0 mi East 3.5 mph - N/A   Overcast
5:55 AM 30.2 °F 25.4 °F 24.8 °F 80% 30.13 in 10.0 mi SE 4.6 mph - N/A   Overcast
6:15 AM 30.2 °F 26.7 °F 24.8 °F 80% 30.15 in 10.0 mi ESE 3.5 mph - N/A   Overcast
6:35 AM 30.2 °F 25.4 °F 24.8 °F 80% 30.15 in 10.0 mi East 4.6 mph - N/A   Overcast
6:55 AM 30.2 °F 26.7 °F 26.6 °F 86% 30.15 in 10.0 mi ENE 3.5 mph - N/A   Overcast
7:15 AM 30.2 °F 23.4 °F 26.6 °F 86% 30.14 in 10.0 mi East 6.9 mph - N/A   Mostly Cloudy
7:35 AM 32.0 °F 25.6 °F 26.6 °F 80% 30.16 in 10.0 mi ESE 6.9 mph - N/A   Mostly Cloudy
7:55 AM 32.0 °F 24.8 °F 26.6 °F 80% 30.17 in 10.0 mi ESE 8.1 mph - N/A   Scattered Clouds
8:15 AM 32.0 °F 23.6 °F 26.6 °F 80% 30.17 in 10.0 mi East 10.4 mph - N/A   Mostly Cloudy
8:35 AM 32.0 °F 22.1 °F 26.6 °F 80% 30.17 in 10.0 mi ESE 13.8 mph - N/A   Mostly Cloudy
8:55 AM 32.0 °F 20.8 °F 26.6 °F 80% 30.16 in 10.0 mi East 17.3 mph - N/A   Scattered Clouds
9:15 AM 32.0 °F 22.1 °F 24.8 °F 75% 30.17 in 10.0 mi ESE 13.8 mph - N/A   Scattered Clouds
9:35 AM 33.8 °F 23.9 °F 24.8 °F 70% 30.19 in 10.0 mi ESE 15.0 mph - N/A   Overcast
9:55 AM 35.6 °F 26.2 °F 26.6 °F 70% 30.20 in 10.0 mi ESE 15.0 mph - N/A   Mostly Cloudy
10:15 AM 35.6 °F 26.2 °F 24.8 °F 65% 30.19 in 10.0 mi ESE 15.0 mph 18.4 mph N/A   Scattered Clouds
10:35 AM 35.6 °F 26.6 °F 26.6 °F 70% 30.19 in 10.0 mi SE 13.8 mph - N/A   Scattered Clouds
10:55 AM 37.4 °F 28.9 °F 26.6 °F 65% 30.19 in 10.0 mi SE 13.8 mph - N/A   Mostly Cloudy
11:15 AM 39.2 °F 30.8 °F 26.6 °F 61% 30.19 in 10.0 mi ESE 15.0 mph - N/A   Mostly Cloudy
11:35 AM 39.2 °F 31.2 °F 26.6 °F 61% 30.19 in 10.0 mi ESE 13.8 mph - N/A   Partly Cloudy
11:55 AM 41.0 °F 32.8 °F 28.4 °F 61% 30.18 in 10.0 mi ESE 16.1 mph - N/A   Clear
12:15 PM 41.0 °F 32.8 °F 28.4 °F 61% 30.17 in 10.0 mi SE 16.1 mph 20.7 mph N/A   Clear
12:35 PM 41.0 °F 33.1 °F 28.4 °F 61% 30.16 in 10.0 mi SE 15.0 mph 20.7 mph N/A   Clear
12:55 PM 41.0 °F 33.1 °F 26.6 °F 57% 30.16 in 10.0 mi ESE 15.0 mph 20.7 mph N/A   Clear
1:15 PM 42.8 °F 35.4 °F 26.6 °F 53% 30.15 in 10.0 mi SE 15.0 mph 21.9 mph N/A   Clear
1:35 PM 44.6 °F 37.2 °F 28.4 °F 53% 30.14 in 10.0 mi ESE 17.3 mph 24.2 mph N/A   Clear
1:55 PM 44.6 °F 37.8 °F 26.6 °F 49% 30.13 in 10.0 mi ESE 15.0 mph - N/A   Clear
2:15 PM 44.6 °F 36.6 °F 26.6 °F 49% 30.11 in 10.0 mi SE 19.6 mph 23.0 mph N/A   Clear
2:35 PM 46.4 °F 39.0 °F 26.6 °F 46% 30.12 in 10.0 mi ESE 19.6 mph 24.2 mph N/A   Clear
2:55 PM 46.4 °F 39.0 °F 26.6 °F 46% 30.11 in 10.0 mi SE 19.6 mph 24.2 mph N/A   Clear
3:15 PM 46.4 °F 39.5 °F 26.6 °F 46% 30.11 in 10.0 mi SE 17.3 mph - N/A   Partly Cloudy
3:55 PM 46.4 °F 39.0 °F 26.6 °F 46% 30.10 in 10.0 mi SE 19.6 mph 25.3 mph N/A   Clear
4:15 PM 46.4 °F 39.5 °F 26.6 °F 46% 30.10 in 10.0 mi SE 17.3 mph - N/A   Clear
4:35 PM 46.4 °F 39.2 °F 28.4 °F 50% 30.09 in 10.0 mi SE 18.4 mph 24.2 mph N/A   Clear
4:55 PM 46.4 °F 38.7 °F 28.4 °F 50% 30.08 in 10.0 mi SE 20.7 mph 26.5 mph N/A   Clear
5:15 PM 46.4 °F 39.0 °F 26.6 °F 46% 30.07 in 10.0 mi SE 19.6 mph 31.1 mph N/A   Clear
5:35 PM 46.4 °F 39.2 °F 26.6 °F 46% 30.07 in 10.0 mi SE 18.4 mph 26.5 mph N/A   Clear
5:55 PM 46.4 °F 38.5 °F 26.6 °F 46% 30.06 in 10.0 mi SE 21.9 mph 27.6 mph N/A   Partly Cloudy
6:15 PM 46.4 °F 39.5 °F 28.4 °F 50% 30.06 in 10.0 mi ESE 17.3 mph 25.3 mph N/A   Scattered Clouds
6:35 PM 46.4 °F 40.4 °F 28.4 °F 50% 30.07 in 10.0 mi SE 13.8 mph 25.3 mph N/A   Partly Cloudy
6:55 PM 46.4 °F 39.5 °F 30.2 °F 53% 30.07 in 10.0 mi SE 17.3 mph 23.0 mph N/A   Scattered Clouds
7:15 PM 46.4 °F 41.1 °F 30.2 °F 53% 30.09 in 10.0 mi SE 11.5 mph - N/A   Mostly Cloudy
7:35 PM 46.4 °F 40.4 °F 32.0 °F 57% 30.09 in 10.0 mi SE 13.8 mph - N/A   Partly Cloudy
7:55 PM 44.6 °F 37.8 °F 30.2 °F 57% 30.09 in 10.0 mi SE 15.0 mph 19.6 mph N/A   Mostly Cloudy
8:15 PM 44.6 °F 38.8 °F 30.2 °F 57% 30.10 in 10.0 mi SE 11.5 mph - N/A   Mostly Cloudy
8:35 PM 42.8 °F 37.0 °F 30.2 °F 61% 30.10 in 10.0 mi ESE 10.4 mph - N/A   Mostly Cloudy
8:55 PM 41.0 °F 34.7 °F 30.2 °F 65% 30.10 in 10.0 mi ESE 10.4 mph - N/A   Scattered Clouds
9:15 PM 41.0 °F 34.7 °F 30.2 °F 65% 30.10 in 10.0 mi ESE 10.4 mph - N/A   Partly Cloudy
9:55 PM 39.2 °F 32.0 °F 30.2 °F 70% 30.10 in 10.0 mi SE 11.5 mph - N/A   Scattered Clouds
10:15 PM 39.2 °F 32.5 °F 30.2 °F 70% 30.11 in 10.0 mi ESE 10.4 mph - N/A   Partly Cloudy
10:35 PM 39.2 °F 32.5 °F 30.2 °F 70% 30.11 in 10.0 mi ESE 10.4 mph - N/A   Partly Cloudy
10:55 PM 39.2 °F 33.0 °F 28.4 °F 65% 30.11 in 10.0 mi ESE 9.2 mph - N/A   Mostly Cloudy
11:15 PM 39.2 °F 32.5 °F 30.2 °F 70% 30.11 in 10.0 mi ESE 10.4 mph - N/A   Scattered Clouds
11:35 PM 41.0 °F 33.9 °F 30.2 °F 65% 30.10 in 10.0 mi SE 12.7 mph - N/A   Mostly Cloudy
11:55 PM 41.0 °F 34.3 °F 30.2 °F 65% 30.10 in 10.0 mi SE 11.5 mph - N/A   Mostly Cloudy